Find Starlink 30566

NORAD ID: 58054 Int'l Des: 2023-158 Owner: SPXS Country: US Constellation: starlink operational
LEOCIRCULAR

現在のビュー

3D地球を読み込み中...

About Starlink 30566

Starlink 30566 (NORAD 58054) is a starlink constellation satellite (v2 mini) launched Oct 13, 2023 by SPXS of US. It operates in LEO, CIRCULAR orbit with a mass of 730.00 kg.

次回通過

Passes for default location (London). Set your location on the main map for personalized predictions.

高度履歴

Loading altitude history...

軌道要素

1 58054U 23158D 26247.99067947 .00000328 00000-0 21459-4 0 9991
2 58054 43.0045 94.2883 0001500 267.9989 92.0691 15.27579362160999
Epoch: Sep 4, 2026 • Age: 21 hours

現在のステータス

高度 482.4 km
遠地点 / 近地点 N/A
速度 7.63 km/s
衛星直下点 12.22°N, 42.25°W
打ち上げ日 Oct 13, 2023
運用期間 2.8 years
タイプ internet

技術仕様

分類 Payload
質量 730.00 kg
乾燥質量 700.00 kg
総質量 730.00 kg
長さ 0.30 m
直径 4.10 m
スパン 29.00 m
形状 Box + pan
製造者 SPXS
バスタイプ Starlink V2M
フェーズステータス In Orbit
所有者/国 SPXS/US

Most Searched